sat.trackr.live / text

‹ back to catalog

STARLINK-11170 [DTC]

NORAD 60068 · 2024-113K

PAYLOAD ACTIVE UNKNOWN

§ Identity

Operator
Country
US
Launch date
2024-06-19
Launch site
AFWTR
Launch vehicle
Mass (kg)
RCS (m²)

Purposes: comms

External: N2YO · Heavens-Above · Gunter

§ Orbital elements

Epoch: 2026-05-24T13:35:34.670400Z

Period
91.74 min
Inclination
53.1591°
Eccentricity
0.0001128
Mean motion
15.69713931 rev/d
Perigee alt
359.0 km
Apogee alt
360.5 km
Semi-major
6,737.9 km
B*
6.9833e-6
RAAN
177.5208°
Arg perigee
76.4694°
Mean anomaly
283.6450°
Rev number
11,147

§ Raw data

STARLINK-11170 [DTC]1 60068U 24113K   26144.56637350  .00000258  00000+0  69833-5 0  99912 60068  53.1591 177.5208 0001128  76.4694 283.6450 15.69713931111471

JSON: /api/v1/satellites/60068 · /tle

For live sub-satellite position, see the globe view (requires WebGL).

§ Visibility from observer

Set your observer location to see the next 7 days of passes ≥ 10°. The values pass through the URL so the page stays shareable.

No JS? Fill the form by hand. The geolocation button needs JavaScript.